sat.trackr.live / text

‹ back to catalog

STARLINK-36525

NORAD 67450 · 2026-008F

PAYLOAD ACTIVE UNKNOWN

§ Identity

Operator
Country
US
Launch date
2026-01-14
Launch site
AFETR
Launch vehicle
Mass (kg)
RCS (m²)

Purposes: comms

External: N2YO · Heavens-Above · Gunter

§ Orbital elements

Epoch: 2026-09-19T04:25:23.284992Z

Period
94.27 min
Inclination
43.0036°
Eccentricity
0.0001221
Mean motion
15.27589153 rev/d
Perigee alt
482.2 km
Apogee alt
483.9 km
Semi-major
6,861.2 km
B*
3.9235e-4
RAAN
192.5650°
Arg perigee
266.1983°
Mean anomaly
93.8729°
Rev number
3,916

§ Raw data

STARLINK-365251 67450U 26008F   26262.18429728  .00010553  00000+0  39235-3 0  99952 67450  43.0036 192.5650 0001221 266.1983  93.8729 15.27589153 39162

JSON: /api/v1/satellites/67450 · /tle

For live sub-satellite position, see the globe view (requires WebGL).

§ Visibility from observer

Set your observer location to see the next 7 days of passes ≥ 10°. The values pass through the URL so the page stays shareable.

No JS? Fill the form by hand. The geolocation button needs JavaScript.